Location: De Greiden
(52.9496°N, 5.9137°E)
Time: 23:32:04
(UTC+00:00)

Cosmos 2227 Rocket - Pass Details

Date: 24 January 2021
Orbit: 837 x 846 km, 71.0° (Epoch: 01 March)

Event Time Altitude Azimuth Distance (km) Brightness Sun altitude
Rises 17:04:16 0° 265° (W) 3,402 7.2 -8.7°
Reaches altitude 10° 17:07:20 10° 281° (W) 2,471 5.7 -9.1°
Maximum altitude 17:11:34 21° 330° (NNW) 1,818 4.1 -9.7°
Drops below altitude 10° 17:15:50 10° 18° (NNE) 2,481 4.3 -10.3°
Enters shadow 17:17:44 - 29° (NNE) 3,036 4.7 -10.6°
